^^
Saratoga-Weather Station Historical Data
Daily Summary for February 7, 2021 Units:  English    Metric   Both
Daily Weekly Monthly Yearly Custom
  High: Low: Average:
Temperature: 71.1 °F 60.4 °F 65.5 °F
Dew Point: 59.9 °F 55.2 °F 57.9 °F
Humidity: 86% 63% 77%
Wind Speed: 9mph 0mph 1.4mph
Wind Gust: 10mph - -
Wind- - South
Pressure: 30.2 in 30.1 in -
Precipitation: 0 in    
Historical Graphs
 
 
Tabular Data for February 7, 2021
Time Temperature Dew Point Pressure Wind Wind Speed Wind Gust Humidity Rainfall Rate (Hourly) solar
00:02 61.7 °F 56.1 °F 30.2 in Calm   3 mph 82% 0 in 0 W/m2
00:07 61.9 °F 55.9 °F 30.2 in Calm   1 mph 81% 0 in 0 W/m2
00:12 61.9 °F 55.9 °F 30.2 in NE 0.9 mph 1 mph 81% 0 in 0 W/m2
00:17 61.9 °F 55.9 °F 30.2 in NE 2 mph 2 mph 81% 0 in 0 W/m2
00:22 61.9 °F 55.6 °F 30.2 in NNE 0.9 mph 2 mph 80% 0 in 0 W/m2
00:27 62.1 °F 55.8 °F 30.2 in Calm   2 mph 80% 0 in 0 W/m2
00:32 62.1 °F 55.8 °F 30.2 in Calm   1 mph 80% 0 in 0 W/m2
00:37 62.1 °F 55.8 °F 30.2 in Calm   1 mph 80% 0 in 0 W/m2
00:42 62.1 °F 55.8 °F 30.2 in Calm     80% 0 in 0 W/m2
00:47 62.1 °F 55.8 °F 30.2 in Calm   1 mph 80% 0 in 0 W/m2
00:52 62.1 °F 55.4 °F 30.2 in NE 0.9 mph 2 mph 79% 0 in 0 W/m2
00:57 62.1 °F 55.4 °F 30.2 in Calm   3 mph 79% 0 in 0 W/m2
01:02 61.9 °F 55.2 °F 30.2 in ESE 0.9 mph 2 mph 79% 0 in 0 W/m2
01:07 61.9 °F 55.6 °F 30.2 in NE 0.9 mph 3 mph 80% 0 in 0 W/m2
01:12 61.9 °F 55.6 °F 30.2 in ENE 0.9 mph 3 mph 80% 0 in 0 W/m2
01:17 61.9 °F 55.6 °F 30.2 in WNW 2 mph 5 mph 80% 0 in 0 W/m2
01:22 61.7 °F 55.4 °F 30.2 in Calm   2 mph 80% 0 in 0 W/m2
01:27 61.7 °F 55.4 °F 30.2 in WNW 0.9 mph 5 mph 80% 0 in 0 W/m2
01:32 61.5 °F 55.6 °F 30.2 in West 0.9 mph 2 mph 81% 0 in 0 W/m2
01:37 61.3 °F 55.4 °F 30.2 in Calm   3 mph 81% 0 in 0 W/m2
01:42 61.2 °F 55.2 °F 30.2 in Calm   1 mph 81% 0 in 0 W/m2
01:47 61.2 °F 55.6 °F 30.2 in West 0.9 mph 3 mph 82% 0 in 0 W/m2
01:52 61.2 °F 55.6 °F 30.2 in Calm   1 mph 82% 0 in 0 W/m2
01:57 61.2 °F 55.6 °F 30.2 in West 0.9 mph 2 mph 82% 0 in 0 W/m2
02:02 61 °F 55.4 °F 30.2 in Calm   2 mph 82% 0 in 0 W/m2
02:07 61 °F 55.4 °F 30.2 in West 0.9 mph 2 mph 82% 0 in 0 W/m2
02:12 60.8 °F 55.6 °F 30.2 in West 0.9 mph 2 mph 83% 0 in 0 W/m2
02:17 60.6 °F 55.4 °F 30.2 in Calm   1 mph 83% 0 in 0 W/m2
02:22 60.6 °F 55.4 °F 30.2 in West 0.9 mph 2 mph 83% 0 in 0 W/m2
02:27 60.6 °F 55.4 °F 30.2 in SSW 0.9 mph 2 mph 83% 0 in 0 W/m2
02:32 60.6 °F 55.4 °F 30.2 in Calm   1 mph 83% 0 in 0 W/m2
02:37 60.6 °F 55.4 °F 30.2 in Calm     83% 0 in 0 W/m2
02:42 60.4 °F 55.6 °F 30.2 in SSW 2 mph 2 mph 84% 0 in 0 W/m2
02:47 60.4 °F 55.6 °F 30.2 in WSW 0.9 mph 1 mph 84% 0 in 0 W/m2
02:52 60.6 °F 55.8 °F 30.2 in WSW 2 mph 2 mph 84% 0 in 0 W/m2
02:57 60.6 °F 55.8 °F 30.2 in Calm     84% 0 in 0 W/m2
03:02 60.4 °F 55.6 °F 30.2 in WSW 0.9 mph 2 mph 84% 0 in 0 W/m2
03:07 60.4 °F 55.6 °F 30.2 in Calm   1 mph 84% 0 in 0 W/m2
03:12 60.4 °F 55.6 °F 30.2 in NW 2 mph 3 mph 84% 0 in 0 W/m2
03:17 60.6 °F 55.8 °F 30.2 in Calm   2 mph 84% 0 in 0 W/m2
03:22 60.8 °F 55.9 °F 30.2 in Calm     84% 0 in 0 W/m2
03:27 60.8 °F 56.3 °F 30.2 in NNW 2 mph 2 mph 85% 0 in 0 W/m2
03:32 60.8 °F 55.9 °F 30.2 in Calm   1 mph 84% 0 in 0 W/m2
03:37 60.8 °F 55.9 °F 30.2 in NW 0.9 mph 4 mph 84% 0 in 0 W/m2
03:42 61 °F 56.1 °F 30.2 in Calm   2 mph 84% 0 in 0 W/m2
03:47 61 °F 56.1 °F 30.2 in WSW 0.9 mph 4 mph 84% 0 in 0 W/m2
03:52 61 °F 56.1 °F 30.2 in West 0.9 mph 2 mph 84% 0 in 0 W/m2
03:57 61 °F 56.1 °F 30.2 in NW 0.9 mph 2 mph 84% 0 in 0 W/m2
04:02 61 °F 56.5 °F 30.2 in WNW 2 mph 3 mph 85% 0 in 0 W/m2
04:07 61 °F 56.5 °F 30.2 in WNW 0.9 mph 3 mph 85% 0 in 0 W/m2
04:12 61 °F 56.5 °F 30.2 in Calm   1 mph 85% 0 in 0 W/m2
04:17 61 °F 56.5 °F 30.2 in West 2 mph 4 mph 85% 0 in 0 W/m2
04:22 61 °F 56.1 °F 30.2 in WNW 4.9 mph 7 mph 84% 0 in 0 W/m2
04:27 61.2 °F 56.7 °F 30.2 in WNW 2 mph 3 mph 85% 0 in 0 W/m2
04:32 61.2 °F 56.7 °F 30.2 in West 2 mph 7 mph 85% 0 in 0 W/m2
04:37 61.2 °F 56.3 °F 30.2 in West 2 mph 4 mph 84% 0 in 0 W/m2
04:42 61.2 °F 56.3 °F 30.2 in WNW 0.9 mph 4 mph 84% 0 in 0 W/m2
04:47 61.2 °F 56.7 °F 30.2 in West 2 mph 3 mph 85% 0 in 0 W/m2
04:52 61.2 °F 56.7 °F 30.2 in NW 0.9 mph 4 mph 85% 0 in 0 W/m2
04:57 61.2 °F 56.7 °F 30.2 in NW 0.9 mph 3 mph 85% 0 in 0 W/m2
05:02 61.2 °F 56.7 °F 30.2 in NW 2 mph 3 mph 85% 0 in 0 W/m2
05:08 61 °F 56.5 °F 30.2 in WNW 2 mph 8 mph 85% 0 in 0 W/m2
05:13 61 °F 56.5 °F 30.2 in WNW 0.9 mph 6 mph 85% 0 in 0 W/m2
05:18 61 °F 56.8 °F 30.2 in WNW 2 mph 4 mph 86% 0 in 0 W/m2
05:23 61 °F 56.8 °F 30.2 in NNW 2 mph 5 mph 86% 0 in 0 W/m2
05:28 61 °F 56.8 °F 30.2 in ENE 2 mph 2 mph 86% 0 in 0 W/m2
05:33 61 °F 56.8 °F 30.2 in Calm   2 mph 86% 0 in 0 W/m2
05:38 61 °F 56.8 °F 30.2 in ENE 2 mph 2 mph 86% 0 in 0 W/m2
05:43 61 °F 56.8 °F 30.2 in Calm     86% 0 in 0 W/m2
05:48 61 °F 56.8 °F 30.2 in NE 0.9 mph 3 mph 86% 0 in 5 W/m2
05:53 61 °F 56.8 °F 30.2 in Calm   5 mph 86% 0 in 5 W/m2
05:58 61 °F 56.8 °F 30.2 in North 2 mph 3 mph 86% 0 in 7 W/m2
06:03 61 °F 56.8 °F 30.2 in NE 2 mph 5 mph 86% 0 in 7 W/m2
06:08 61 °F 56.8 °F 30.2 in NNW 0.9 mph 4 mph 86% 0 in 9 W/m2
06:13 61 °F 56.8 °F 30.2 in WNW 2.9 mph 7 mph 86% 0 in 11 W/m2
06:18 61 °F 56.8 °F 30.2 in West 4 mph 4 mph 86% 0 in 14 W/m2
06:23 61 °F 56.8 °F 30.2 in Calm   5 mph 86% 0 in 16 W/m2
06:28 61 °F 56.8 °F 30.2 in WNW 2.9 mph 3 mph 86% 0 in 19 W/m2
06:33 61.2 °F 57 °F 30.1 in North 0.9 mph 3 mph 86% 0 in 23 W/m2
06:38 61.2 °F 57 °F 30.1 in NNW 0.9 mph 2 mph 86% 0 in 28 W/m2
06:43 61.2 °F 57 °F 30.2 in Calm   3 mph 86% 0 in 28 W/m2
06:48 61.2 °F 56.7 °F 30.2 in Calm     85% 0 in 30 W/m2
06:53 61.2 °F 56.7 °F 30.1 in Calm     85% 0 in 33 W/m2
06:58 61.2 °F 57 °F 30.2 in Calm   3 mph 86% 0 in 33 W/m2
07:03 61.2 °F 56.7 °F 30.2 in Calm   1 mph 85% 0 in 30 W/m2
07:08 61.2 °F 56.7 °F 30.2 in ENE 0.9 mph 1 mph 85% 0 in 32 W/m2
07:13 61.2 °F 57 °F 30.2 in ENE 0.9 mph 1 mph 86% 0 in 39 W/m2
07:18 61.2 °F 56.7 °F 30.2 in Calm   2 mph 85% 0 in 44 W/m2
07:23 61.2 °F 56.7 °F 30.2 in Calm   3 mph 85% 0 in 51 W/m2
07:28 61.3 °F 56.8 °F 30.2 in ENE 2.9 mph 3 mph 85% 0 in 60 W/m2
07:33 61.3 °F 56.8 °F 30.2 in East 0.9 mph 2 mph 85% 0 in 67 W/m2
07:38 61.3 °F 56.8 °F 30.2 in East 2.9 mph 3 mph 85% 0 in 74 W/m2
07:43 61.5 °F 57 °F 30.2 in Calm   3 mph 85% 0 in 84 W/m2
07:48 61.7 °F 57.2 °F 30.2 in SE 0.9 mph 2 mph 85% 0 in 88 W/m2
07:53 61.9 °F 57.4 °F 30.2 in North 2 mph 4 mph 85% 0 in 90 W/m2
07:58 61.9 °F 57.4 °F 30.2 in Calm   2 mph 85% 0 in 107 W/m2
08:03 62.1 °F 57.6 °F 30.2 in East 2 mph 3 mph 85% 0 in 98 W/m2
08:08 62.2 °F 57.7 °F 30.2 in Calm   1 mph 85% 0 in 95 W/m2
08:13 62.2 °F 57.7 °F 30.2 in NNE 0.9 mph 2 mph 85% 0 in 97 W/m2
08:18 62.2 °F 57.4 °F 30.2 in Calm   2 mph 84% 0 in 97 W/m2
08:23 62.4 °F 57.6 °F 30.2 in ESE 0.9 mph 3 mph 84% 0 in 90 W/m2
08:28 62.4 °F 57.6 °F 30.2 in Calm   2 mph 84% 0 in 76 W/m2
08:33 62.4 °F 57.6 °F 30.2 in Calm   3 mph 84% 0 in 77 W/m2
08:38 62.4 °F 57.6 °F 30.2 in East 2 mph 4 mph 84% 0 in 83 W/m2
08:43 62.2 °F 57.4 °F 30.2 in ENE 0.9 mph 2 mph 84% 0 in 83 W/m2
08:48 62.2 °F 57.4 °F 30.2 in Calm   3 mph 84% 0 in 86 W/m2
08:53 62.2 °F 57.4 °F 30.2 in Calm   2 mph 84% 0 in 90 W/m2
08:58 62.2 °F 57.7 °F 30.2 in East 2 mph 3 mph 85% 0 in 97 W/m2
09:03 62.2 °F 57.7 °F 30.2 in Calm   2 mph 85% 0 in 97 W/m2
09:08 62.4 °F 57.9 °F 30.2 in East 0.9 mph 2 mph 85% 0 in 114 W/m2
09:13 62.4 °F 57.9 °F 30.2 in Calm   3 mph 85% 0 in 121 W/m2
09:18 62.4 °F 57.6 °F 30.2 in NNW 2 mph 3 mph 84% 0 in 127 W/m2
09:23 62.6 °F 57.7 °F 30.2 in NW 2 mph 3 mph 84% 0 in 156 W/m2
09:28 62.8 °F 57.9 °F 30.2 in Calm   2 mph 84% 0 in 202 W/m2
09:33 63 °F 58.5 °F 30.2 in Calm     85% 0 in 262 W/m2
09:38 63.1 °F 57.9 °F 30.2 in ENE 0.9 mph 3 mph 83% 0 in 246 W/m2
09:43 63.5 °F 58.3 °F 30.2 in East 4 mph 6 mph 83% 0 in 229 W/m2
09:48 63.7 °F 58.5 °F 30.2 in Calm   6 mph 83% 0 in 239 W/m2
09:53 63.9 °F 58.3 °F 30.2 in NNE 2.9 mph 3 mph 82% 0 in 281 W/m2
09:58 64 °F 58.5 °F 30.2 in ESE 2.9 mph 9 mph 82% 0 in 297 W/m2
10:03 64.4 °F 58.8 °F 30.2 in NNW 2 mph 5 mph 82% 0 in 325 W/m2
10:08 64.6 °F 58.6 °F 30.2 in ESE 2 mph 9 mph 81% 0 in 350 W/m2
10:14 64.8 °F 58.8 °F 30.2 in East 2.9 mph 4 mph 81% 0 in 381 W/m2
10:19 65.1 °F 58.8 °F 30.2 in ESE 2.9 mph 4 mph 80% 0 in 350 W/m2
10:24 65.3 °F 59 °F 30.2 in ESE 4.9 mph 5 mph 80% 0 in 320 W/m2
10:29 65.5 °F 59.2 °F 30.2 in East 2 mph 4 mph 80% 0 in 309 W/m2
10:34 65.7 °F 59.4 °F 30.2 in ESE 0.9 mph 3 mph 80% 0 in 383 W/m2
10:39 65.8 °F 59.2 °F 30.2 in Calm   5 mph 79% 0 in 360 W/m2
10:44 66 °F 59.4 °F 30.2 in ENE 2.9 mph 4 mph 79% 0 in 396 W/m2
10:49 66.2 °F 59.9 °F 30.2 in NW 2.9 mph 5 mph 80% 0 in 373 W/m2
10:54 66.4 °F 59.7 °F 30.2 in ESE 2.9 mph 4 mph 79% 0 in 371 W/m2
10:59 66.6 °F 59.5 °F 30.2 in NNW 2.9 mph 6 mph 78% 0 in 387 W/m2
11:04 66.7 °F 59.7 °F 30.2 in ENE 4 mph 5 mph 78% 0 in 427 W/m2
11:09 66.7 °F 59.4 °F 30.2 in East 0.9 mph 7 mph 77% 0 in 401 W/m2
11:14 66.9 °F 59.2 °F 30.2 in ENE 2 mph 10 mph 76% 0 in 338 W/m2
11:19 66.9 °F 59.2 °F 30.2 in ESE 6 mph 8 mph 76% 0 in 360 W/m2
11:24 67.1 °F 59.7 °F 30.2 in East 2 mph 10 mph 77% 0 in 448 W/m2
11:29 67.3 °F 59 °F 30.2 in East 2.9 mph 6 mph 75% 0 in 471 W/m2
11:34 67.1 °F 58.8 °F 30.2 in NE 2.9 mph 4 mph 75% 0 in 461 W/m2
11:39 67.5 °F 58.8 °F 30.2 in NE 2.9 mph 5 mph 74% 0 in 417 W/m2
11:44 67.3 °F 58.6 °F 30.2 in ENE 2.9 mph 8 mph 74% 0 in 381 W/m2
11:49 67.3 °F 59 °F 30.2 in East 0.9 mph 5 mph 75% 0 in 350 W/m2
11:54 67.5 °F 58.5 °F 30.2 in SSE 0.9 mph 10 mph 73% 0 in 371 W/m2
11:59 67.5 °F 58.5 °F 30.2 in ENE 4.9 mph 5 mph 73% 0 in 390 W/m2
12:04 67.6 °F 58.6 °F 30.2 in East 4 mph 7 mph 73% 0 in 371 W/m2
12:09 67.8 °F 58.8 °F 30.2 in SSE 2.9 mph 7 mph 73% 0 in 385 W/m2
12:14 67.8 °F 59.2 °F 30.2 in SW 0.9 mph 4 mph 74% 0 in 457 W/m2
12:19 68.2 °F 59.2 °F 30.2 in NE 4 mph 5 mph 73% 0 in 499 W/m2
12:24 68.4 °F 59 °F 30.2 in North 2 mph 3 mph 72% 0 in 459 W/m2
12:29 68.5 °F 59.2 °F 30.2 in Calm   5 mph 72% 0 in 483 W/m2
12:34 68.5 °F 59.2 °F 30.2 in NE 2.9 mph 4 mph 72% 0 in 529 W/m2
12:39 68.7 °F 59.4 °F 30.2 in East 7 mph 7 mph 72% 0 in 506 W/m2
12:44 69.1 °F 59.4 °F 30.2 in NE 2.9 mph 8 mph 71% 0 in 591 W/m2
12:49 69.3 °F 59.5 °F 30.2 in Calm   6 mph 71% 0 in 656 W/m2
12:54 69.6 °F 59.4 °F 30.2 in NNW 0.9 mph 8 mph 70% 0 in 659 W/m2
12:59 70.2 °F 59.5 °F 30.2 in NNW 2 mph 3 mph 69% 0 in 638 W/m2
13:04 70.2 °F 59.5 °F 30.2 in NNW 4 mph 9 mph 69% 0 in 497 W/m2
13:09 70.2 °F 59.5 °F 30.2 in WNW 2 mph 6 mph 69% 0 in 585 W/m2
13:14 70.2 °F 59.5 °F 30.2 in East 2 mph 9 mph 69% 0 in 543 W/m2
13:19 70.3 °F 59.7 °F 30.2 in NNW 2 mph 6 mph 69% 0 in 492 W/m2
13:24 70.3 °F 59.7 °F 30.2 in East 2 mph 4 mph 69% 0 in 508 W/m2
13:29 70.5 °F 59.9 °F 30.2 in NE 2 mph 6 mph 69% 0 in 459 W/m2
13:34 70.5 °F 59.4 °F 30.1 in West 8.1 mph 9 mph 68% 0 in 408 W/m2
13:39 70 °F 59.7 °F 30.1 in Calm   6 mph 70% 0 in 387 W/m2
13:44 69.6 °F 59.4 °F 30.1 in WSW 2.9 mph 8 mph 70% 0 in 404 W/m2
13:49 69.6 °F 59.4 °F 30.1 in NE 0.9 mph 4 mph 70% 0 in 431 W/m2
13:54 69.8 °F 58.8 °F 30.1 in NE 2.9 mph 3 mph 68% 0 in 480 W/m2
13:59 70.2 °F 58.6 °F 30.1 in East 0.9 mph 8 mph 67% 0 in 462 W/m2
14:04 70.2 °F 58.3 °F 30.1 in NNW 9 mph 9 mph 66% 0 in 464 W/m2
14:09 70.2 °F 57.9 °F 30.1 in North 2.9 mph 9 mph 65% 0 in 497 W/m2
14:14 70.3 °F 57.6 °F 30.1 in NE 4 mph 5 mph 64% 0 in 459 W/m2
14:19 70.3 °F 58.5 °F 30.1 in NW 2 mph 9 mph 66% 0 in 431 W/m2
14:24 70.5 °F 58.6 °F 30.1 in NNE 4 mph 6 mph 66% 0 in 457 W/m2
14:29 70.7 °F 57.9 °F 30.1 in North 2 mph 5 mph 64% 0 in 452 W/m2
14:34 70.9 °F 57.7 °F 30.1 in ENE 4 mph 5 mph 63% 0 in 455 W/m2
14:39 71.1 °F 59.2 °F 30.1 in NNE 2 mph 9 mph 66% 0 in 446 W/m2
14:44 70.9 °F 59 °F 30.1 in West 2 mph 8 mph 66% 0 in 369 W/m2
14:49 70.9 °F 59 °F 30.1 in North 2 mph 9 mph 66% 0 in 369 W/m2
14:54 70.7 °F 58.8 °F 30.1 in WNW 2 mph 4 mph 66% 0 in 387 W/m2
14:59 70.5 °F 58.6 °F 30.1 in WNW 2 mph 4 mph 66% 0 in 422 W/m2
15:04 70.5 °F 59 °F 30.1 in WNW 2 mph 5 mph 67% 0 in 431 W/m2
15:09 70.5 °F 58.6 °F 30.1 in Calm   5 mph 66% 0 in 401 W/m2
15:14 70.9 °F 59 °F 30.1 in West 2 mph 5 mph 66% 0 in 403 W/m2
15:19 70.9 °F 59 °F 30.1 in NE 2.9 mph 3 mph 66% 0 in 396 W/m2
15:25 71.1 °F 59.2 °F 30.1 in NW 2 mph 5 mph 66% 0 in 387 W/m2
15:30 70.9 °F 59 °F 30.1 in NW 2 mph 6 mph 66% 0 in 381 W/m2
15:35 70.5 °F 58.6 °F 30.1 in West 2.9 mph 6 mph 66% 0 in 360 W/m2
15:40 70.5 °F 59 °F 30.1 in NNW 0.9 mph 4 mph 67% 0 in 304 W/m2
15:45 70.7 °F 58.8 °F 30.1 in West 2 mph 6 mph 66% 0 in 279 W/m2
15:50 70.3 °F 58.5 °F 30.1 in WNW 2.9 mph 4 mph 66% 0 in 264 W/m2
15:55 70.3 °F 58.8 °F 30.1 in WNW 0.9 mph 3 mph 67% 0 in 255 W/m2
16:00 70.3 °F 58.5 °F 30.1 in NNW 2 mph 6 mph 66% 0 in 250 W/m2
16:05 70.2 °F 58.6 °F 30.1 in Calm   3 mph 67% 0 in 250 W/m2
16:10 70.3 °F 58.5 °F 30.1 in Calm   3 mph 66% 0 in 251 W/m2
16:15 70.5 °F 59.4 °F 30.1 in ENE 2 mph 3 mph 68% 0 in 251 W/m2
16:20 70.7 °F 58.3 °F 30.1 in NW 0.9 mph 8 mph 65% 0 in 255 W/m2
16:25 70.7 °F 58.8 °F 30.1 in Calm   4 mph 66% 0 in 260 W/m2
16:30 70.7 °F 58.8 °F 30.1 in WNW 2 mph 8 mph 66% 0 in 255 W/m2
16:35 70.5 °F 58.1 °F 30.1 in NNW 4 mph 6 mph 65% 0 in 241 W/m2
16:40 70.5 °F 58.1 °F 30.1 in ENE 2 mph 4 mph 65% 0 in 248 W/m2
16:45 70.7 °F 58.8 °F 30.1 in Calm   1 mph 66% 0 in 260 W/m2
16:50 70.9 °F 58.5 °F 30.1 in West 0.9 mph 7 mph 65% 0 in 241 W/m2
16:55 70.7 °F 58.3 °F 30.1 in WNW 2 mph 3 mph 65% 0 in 236 W/m2
17:00 70.5 °F 58.1 °F 30.1 in North 2 mph 4 mph 65% 0 in 234 W/m2
17:05 70.5 °F 58.1 °F 30.1 in NNW 2 mph 3 mph 65% 0 in 234 W/m2
17:10 70.5 °F 58.1 °F 30.1 in ENE 4 mph 4 mph 65% 0 in 206 W/m2
17:15 70.5 °F 58.1 °F 30.1 in WNW 0.9 mph 3 mph 65% 0 in 200 W/m2
17:20 70.5 °F 58.6 °F 30.1 in WNW 2 mph 4 mph 66% 0 in 186 W/m2
17:25 70.5 °F 58.6 °F 30.1 in NNW 2 mph 4 mph 66% 0 in 172 W/m2
17:30 70.5 °F 58.1 °F 30.1 in NE 0.9 mph 4 mph 65% 0 in 176 W/m2
17:35 70.5 °F 58.1 °F 30.1 in East 0.9 mph 2 mph 65% 0 in 167 W/m2
17:40 70.5 °F 58.1 °F 30.1 in WSW 2 mph 7 mph 65% 0 in 156 W/m2
17:45 70.3 °F 58.5 °F 30.1 in West 2 mph 4 mph 66% 0 in 155 W/m2
17:50 70.3 °F 58.8 °F 30.1 in West 2 mph 7 mph 67% 0 in 142 W/m2
17:55 70.2 °F 58.6 °F 30.1 in North 0.9 mph 4 mph 67% 0 in 132 W/m2
18:00 70.3 °F 58.8 °F 30.1 in NNE 2 mph 4 mph 67% 0 in 118 W/m2
18:05 70.3 °F 58.5 °F 30.1 in West 2 mph 3 mph 66% 0 in 107 W/m2
18:10 70.2 °F 58.3 °F 30.1 in NNE 2 mph 4 mph 66% 0 in 111 W/m2
18:15 70.2 °F 58.6 °F 30.1 in West 2 mph 4 mph 67% 0 in 118 W/m2
18:20 70.2 °F 59.2 °F 30.1 in NNW 2.9 mph 3 mph 68% 0 in 123 W/m2
18:25 70.2 °F 59.2 °F 30.1 in NNW 0.9 mph 4 mph 68% 0 in 118 W/m2
18:30 70.2 °F 59.2 °F 30.1 in East 2.9 mph 4 mph 68% 0 in 104 W/m2
18:35 70.2 °F 59.2 °F 30.1 in ENE 0.9 mph 5 mph 68% 0 in 118 W/m2
18:40 70.2 °F 59.2 °F 30.1 in Calm   2 mph 68% 0 in 123 W/m2
18:45 70.2 °F 59.5 °F 30.1 in Calm   1 mph 69% 0 in 114 W/m2
18:50 70 °F 59 °F 30.1 in ENE 2.9 mph 4 mph 68% 0 in 111 W/m2
18:55 69.8 °F 58.8 °F 30.1 in NE 0.9 mph 3 mph 68% 0 in 100 W/m2
19:00 69.6 °F 59 °F 30.1 in North 2.9 mph 3 mph 69% 0 in 86 W/m2
19:05 69.6 °F 59 °F 30.1 in Calm   3 mph 69% 0 in 83 W/m2
19:10 69.6 °F 59 °F 30.1 in NNE 0.9 mph 2 mph 69% 0 in 72 W/m2
19:15 69.4 °F 58.8 °F 30.1 in Calm   2 mph 69% 0 in 63 W/m2
19:20 69.4 °F 59.2 °F 30.1 in Calm   1 mph 70% 0 in 54 W/m2
19:25 69.4 °F 59.2 °F 30.1 in Calm   2 mph 70% 0 in 46 W/m2
19:30 69.3 °F 59 °F 30.1 in ENE 0.9 mph 2 mph 70% 0 in 47 W/m2
19:35 69.3 °F 59 °F 30.1 in NE 0.9 mph 2 mph 70% 0 in 49 W/m2
19:40 69.3 °F 59 °F 30.1 in East 2 mph 3 mph 70% 0 in 39 W/m2
19:45 69.1 °F 59.4 °F 30.1 in Calm   1 mph 71% 0 in 39 W/m2
19:50 69.1 °F 58.8 °F 30.1 in NNE 0.9 mph 2 mph 70% 0 in 46 W/m2
19:55 69.1 °F 59.4 °F 30.1 in Calm   1 mph 71% 0 in 42 W/m2
20:00 68.9 °F 59.2 °F 30.1 in ENE 4 mph 4 mph 71% 0 in 35 W/m2
20:05 68.7 °F 59 °F 30.1 in Calm   1 mph 71% 0 in 26 W/m2
20:10 68.5 °F 58.8 °F 30.1 in East 0.9 mph 2 mph 71% 0 in 19 W/m2
20:15 68.5 °F 58.8 °F 30.1 in ESE 0.9 mph 2 mph 71% 0 in 18 W/m2
20:20 68.4 °F 59 °F 30.1 in ESE 0.9 mph 3 mph 72% 0 in 14 W/m2
20:25 68.2 °F 58.8 °F 30.1 in NNE 2 mph 2 mph 72% 0 in 14 W/m2
20:30 68 °F 58.6 °F 30.1 in Calm   3 mph 72% 0 in 11 W/m2
20:35 67.8 °F 58.8 °F 30.1 in NE 0.9 mph 1 mph 73% 0 in 9 W/m2
20:40 67.8 °F 58.8 °F 30.1 in Calm   3 mph 73% 0 in 7 W/m2
20:45 67.6 °F 58.6 °F 30.1 in NE 0.9 mph 3 mph 73% 0 in 5 W/m2
20:50 67.6 °F 58.3 °F 30.1 in North 0.9 mph 4 mph 72% 0 in 5 W/m2
20:55 67.5 °F 58.5 °F 30.1 in East 0.9 mph 3 mph 73% 0 in 5 W/m2
21:00 67.3 °F 58.3 °F 30.1 in Calm     73% 0 in 5 W/m2
21:05 67.3 °F 58.6 °F 30.1 in Calm   1 mph 74% 0 in 7 W/m2
21:10 67.1 °F 58.1 °F 30.1 in Calm   2 mph 73% 0 in 9 W/m2
21:15 66.9 °F 58.3 °F 30.1 in Calm   2 mph 74% 0 in 9 W/m2
21:20 66.9 °F 58.3 °F 30.1 in NE 2 mph 3 mph 74% 0 in 5 W/m2
21:25 66.9 °F 58.3 °F 30.1 in NE 0.9 mph 1 mph 74% 0 in 5 W/m2
21:30 66.9 °F 58.3 °F 30.1 in Calm     74% 0 in 0 W/m2
21:35 66.9 °F 58.3 °F 30.1 in NNW 2 mph 2 mph 74% 0 in 0 W/m2
21:40 66.7 °F 58.6 °F 30.1 in North 0.9 mph 3 mph 75% 0 in 0 W/m2
21:45 66.7 °F 58.6 °F 30.1 in Calm   3 mph 75% 0 in 0 W/m2
21:50 66.7 °F 59 °F 30.1 in ENE 0.9 mph 2 mph 76% 0 in 0 W/m2
21:55 66.6 °F 58.8 °F 30.2 in ENE 0.9 mph 1 mph 76% 0 in 0 W/m2
22:00 66.6 °F 59.2 °F 30.2 in NNE 0.9 mph 2 mph 77% 0 in 0 W/m2
22:05 66.4 °F 59 °F 30.2 in Calm   3 mph 77% 0 in 0 W/m2
22:10 66.2 °F 58.8 °F 30.2 in North 0.9 mph 3 mph 77% 0 in 0 W/m2
22:15 66 °F 59 °F 30.2 in NE 0.9 mph 4 mph 78% 0 in 0 W/m2
22:20 65.8 °F 58.8 °F 30.2 in Calm   3 mph 78% 0 in 0 W/m2
22:25 65.8 °F 58.8 °F 30.2 in Calm   2 mph 78% 0 in 0 W/m2
22:30 65.8 °F 58.8 °F 30.2 in Calm   1 mph 78% 0 in 0 W/m2
22:35 65.7 °F 58.6 °F 30.2 in East 0.9 mph 2 mph 78% 0 in 0 W/m2
22:40 65.7 °F 58.6 °F 30.2 in Calm   1 mph 78% 0 in 0 W/m2
22:45 65.7 °F 58.6 °F 30.2 in ESE 0.9 mph 3 mph 78% 0 in 0 W/m2
22:50 65.5 °F 58.5 °F 30.2 in NNE 0.9 mph 3 mph 78% 0 in 0 W/m2
22:55 65.3 °F 58.6 °F 30.2 in Calm   1 mph 79% 0 in 0 W/m2
23:00 65.3 °F 58.6 °F 30.2 in East 0.9 mph 1 mph 79% 0 in 0 W/m2
23:05 65.1 °F 58.5 °F 30.2 in East 2 mph 2 mph 79% 0 in 0 W/m2
23:10 65.1 °F 58.5 °F 30.2 in Calm     79% 0 in 0 W/m2
23:15 64.9 °F 58.3 °F 30.2 in SSW 0.9 mph 3 mph 79% 0 in 0 W/m2
23:20 64.9 °F 58.3 °F 30.2 in NW 0.9 mph 2 mph 79% 0 in 0 W/m2
23:25 64.8 °F 58.1 °F 30.2 in Calm   3 mph 79% 0 in 0 W/m2
23:31 64.8 °F 58.5 °F 30.2 in ENE 0.9 mph 3 mph 80% 0 in 0 W/m2
23:36 64.8 °F 58.5 °F 30.2 in NE 2 mph 3 mph 80% 0 in 0 W/m2
23:41 64.6 °F 58.6 °F 30.2 in Calm   2 mph 81% 0 in 0 W/m2
23:46 64.6 °F 58.6 °F 30.2 in NE 0.9 mph 2 mph 81% 0 in 0 W/m2
23:51 64.4 °F 58.8 °F 30.2 in Calm   3 mph 82% 0 in 0 W/m2
23:56 64.4 °F 58.8 °F 30.2 in Calm   2 mph 82% 0 in 0 W/m2
Juneau County Weather
Compliments of Weather Underground - 4 mb